FENGYUN 1C DEB, 30849

Orbit data source: Space-Track

FENGYUN 1C DEB, 30849 is space debris in SSO originally from a launch on Mon, 10 May 1999 UTC launched from the Taiyaun Space Center, China (TSC). Fengyun 1C debris stems from the Chinese weather satellite Fengyun-1C, which was intentionally destroyed by a Chinese anti-satellite missile in 2007. This event dramatically increased the amount of space debris, with thousands of trackable fragments posing hazards to satellites and human spaceflight. The Fengyun 1C debris cloud has become a focal point in discussions about space sustainability and the need for international regulations to prevent the creation of new debris.

Loading next visibility...
Identifier
30849, 1999-025AWK
Orbit
SSO
Country
Flag of CNCN / PRC
Related business
Manufacturer
Unknown
Mission
Spacecraft
Bus & Motor
Unknown
Mass
Unknown
Launch date (UTC)
1999-05-10 (27 years ago)
Launch vehicle
Unknown
Launch site
Taiyaun Space Center, China (TSC)
Object type
Payload
Rocket body
Debris
Shape & HBR
Unknown shape, 0.1 m
Radar Cross Section
Small (<0.1 m²)

Expand to show TLE details & history
Last TLE update: 2 days ago

TLE from 2 days ago
0 FENGYUN 1C DEB
1 30849U 99025AWK 26261.16295769  .00001485  00000-0  70964-3 0  9998
2 30849  99.0287 331.8499 0046981 288.2071 100.8305 14.20191739  3315
Epoch: 2026-09-18T03:54Z
TLE epoch observation values (Epoch: 2026-09-18T03:54:39.544Z)
Latitude
29.21241°
Longitude
-88.97511°
Altitude
834.831 km
Speed
7.435 km/s
True Right ascension
21h 47m 07s
True Declination
29° 04' 04"
Sunlit
Object was in full shadow at epoch
Visualization orbit readout
Latitude
Unknown
Longitude
Unknown
Altitude
Unknown
Speed
Unknown
Apparent Right ascension
Unknown
Apparent Declination
Unknown
Sunlit
N/A
Visualization observer readout
Local Sidereal Time
03:10:35
Azimuth
Unknown
Elevation
Unknown
Doppler factor
Unknown
Orbital elements
Apogee altitude
855.705 km
Perigee altitude
788.052 km
Semi-major axis
7,200.015 km
Eccentricity
0.0047
Inclination
99.0287°
RAAN
331.8499°
Arg. of periapsis
288.2071°
True anomaly
101.35868°
Mean anomaly
100.8305°
Eccentric anomaly
101.09465°
Mean motion
3.55257 °/min
Orbital period
101.33 mins
BSTAR
0.00070964
Loading maneuver chart data...
Computing Atmospheric mass density...

Documentation

Showing up to 5 results
|